Weather History for KMFI - March, 2014

Change the Weather History Date:

Friday, March 7, 2014

  Actual Average Record
Temperature  
Mean Temperature 26 °F -  
Max Temperature 34 °F 36 °F 70 °F (1987)
Min Temperature 19 °F 14 °F -20 °F (1913)
Degree Days  
Heating Degree Days 38    
Moisture  
Dew Point 21 °F    
Average Humidity 76    
Maximum Humidity 82    
Minimum Humidity 69    
Precipitation  
Precipitation 0.00 in - - ()
Sea Level Pressure  
Sea Level Pressure 29.94 in    
Wind  
Wind Speed 7 mph (WNW)    
Max Wind Speed 14 mph    
Max Gust Speed -    
Visibility 6 miles    
Events      
Averages and records for this station are not official NWS values.
T = Trace of Precipitation, MM = Missing Value Source: NWS Daily Summary

Daily Weather History Graph

Daily Weather History Graph

Search for Another Location

Airport or City:

Trip Planner

Search our weather history database for the weather conditions in past years. The results will help you decide how hot, cold, wet, or windy it might be!

Date:

Astronomy

Mar. 07, 2014 Rise Set
Actual Time 6:27 AM CST 5:56 PM CST
Civil Twilight 5:58 AM CST 6:25 PM CST
Nautical Twilight 5:24 AM CST 6:59 PM CST
Astronomical Twilight 4:50 AM CST 7:33 PM CST
Moon 10:05 AM CST (3/7) 12:15 AM CST (3/7)
Length of Visible Light 12h 27m
Length of Day
11h 28m
Waxing Crescent, 42% of the Moon is Illuminated
Mar 7
Waxing Crescent
Mar 8
First Quarter
Mar 16
Full
Mar 23
Last Quarter
Mar 30
New

Hourly Weather History & Observations

Time (CST) Temp. Windchill Dew Point Humidity Pressure Visibility Wind Dir Wind Speed Gust Speed Precip Events Conditions
12:54 AM 19.0 °F 10.0 °F 12.0 °F 74% 29.96 in 9.0 mi South 6.9 mph - N/A   Clear
1:54 AM 19.0 °F 7.5 °F 12.9 °F 77% 29.94 in 8.0 mi South 10.4 mph - N/A   Clear
2:54 AM 19.0 °F 12.3 °F 12.9 °F 77% 29.92 in 8.0 mi South 4.6 mph - N/A   Clear
3:54 AM 19.0 °F 11.1 °F 12.9 °F 77% 29.91 in 7.0 mi SSE 5.8 mph - N/A   Clear
4:54 AM 19.0 °F 13.9 °F 12.9 °F 77% 29.90 in 7.0 mi South 3.5 mph - N/A   Clear
5:54 AM 19.9 °F 14.9 °F 15.1 °F 81% 29.87 in 6.0 mi South 3.5 mph - N/A   Haze
6:54 AM 21.0 °F 16.2 °F 16.0 °F 81% 29.88 in 5.0 mi South 3.5 mph - N/A   Haze
7:54 AM 23.0 °F 18.4 °F 17.1 °F 78% 29.87 in 5.0 mi SSE 3.5 mph - N/A   Haze
8:24 AM 24.1 °F 18.2 °F 18.0 °F 77% 29.80 in 5.0 mi South 4.6 mph - N/A   Haze
8:54 AM 26.1 °F 19.4 °F 19.0 °F 75% 29.86 in 5.0 mi South 5.8 mph - N/A   Haze
9:27 AM 28.0 °F 21.7 °F 21.0 °F 75% 29.79 in 4.0 mi South 5.8 mph - 0.00 in   Overcast
9:54 AM 28.9 °F 21.1 °F 21.9 °F 75% 29.86 in 5.0 mi SSW 8.1 mph - 0.00 in   Haze
10:32 AM 30.0 °F 22.4 °F 21.9 °F 72% 29.80 in 4.0 mi SW 8.1 mph - 0.00 in   Haze
10:54 AM 30.9 °F 25.2 °F 23.0 °F 72% 29.85 in 4.0 mi West 5.8 mph - 0.00 in   Overcast
11:54 AM 30.9 °F 24.3 °F 25.0 °F 79% 29.85 in 4.0 mi West 6.9 mph - 0.00 in   Haze
12:54 PM 32.0 °F 25.6 °F 25.0 °F 75% 29.85 in 3.0 mi West 6.9 mph - N/A   Haze
1:54 PM 33.1 °F 26.1 °F 26.1 °F 75% 29.86 in 3.0 mi NW 8.1 mph - N/A   Haze
2:54 PM 34.0 °F 28.8 °F 26.1 °F 73% 29.88 in 3.0 mi West 5.8 mph - N/A   Haze
3:54 PM 33.1 °F 24.9 °F 26.1 °F 75% 29.91 in 3.0 mi NW 10.4 mph - N/A   Haze
4:54 PM 32.0 °F 22.1 °F 26.1 °F 79% 29.94 in 3.0 mi NW 13.8 mph - N/A   Haze
5:54 PM 32.0 °F 22.5 °F 26.1 °F 79% 29.98 in 3.0 mi NNW 12.7 mph - N/A   Haze
6:34 PM 30.9 °F 22.2 °F 26.1 °F 82% 29.94 in 4.0 mi NNW 10.4 mph - N/A   Haze
6:54 PM 32.0 °F 23.0 °F 26.1 °F 79% 30.01 in 4.0 mi NNW 11.5 mph - N/A   Haze
7:54 PM 30.9 °F 23.5 °F 26.1 °F 82% 30.04 in 4.0 mi North 8.1 mph - N/A   Haze
8:17 PM 30.9 °F 21.7 °F 25.0 °F 79% 29.98 in 5.0 mi North 11.5 mph - N/A   Haze
8:54 PM 30.9 °F 22.8 °F 24.1 °F 76% 30.05 in 6.0 mi North 9.2 mph - N/A   Haze
9:50 PM 30.2 °F 23.4 °F 21.2 °F 69% 30.02 in 8.0 mi North 6.9 mph - N/A   Overcast
9:54 PM 30.0 °F 23.2 °F 21.9 °F 72% 30.07 in 8.0 mi North 6.9 mph - N/A   Mostly Cloudy
10:31 PM 30.0 °F 21.7 °F 21.9 °F 72% 30.02 in 8.0 mi NNE 9.2 mph - N/A   Overcast
10:49 PM 30.2 °F 21.9 °F 21.2 °F 69% 30.02 in 9.0 mi North 9.2 mph - N/A   Overcast
10:54 PM 30.0 °F 23.2 °F 21.9 °F 72% 30.08 in 9.0 mi NNE 6.9 mph - N/A   Overcast
11:31 PM 30.0 °F 25.2 °F 21.9 °F 72% 30.04 in 8.0 mi North 4.6 mph - N/A   Overcast
11:54 PM 30.0 °F 24.1 °F 21.9 °F 72% 30.11 in 8.0 mi North 5.8 mph - N/A   Overcast